Temp
-6 -6 -6 -7 -8 -8 -8 -7 -6 -6 -7 -7 -7 -7 -7 -7 -7 -8 -6 -7 -7 -7 -7 -6 -6 -6 -6 -6 -6 -6 -6 -6
-7 -6 -7 -7 -8 -8 -8 -8 -7 -6 -6 -7 -7 -7 -7 -7 -7 -8 -7 -7 -7 -8 -8 -7 -7 -7 -6 -6 -6 -6 -6 -6
-8 -8 -8 -8 -8 -8 -8 -8 -8 -7 -6 -7 -7 -7 -7 -7 -7 -7 -7 -6 -7 -8 -8 -7 -7 -7 -7 -7 -6 -6 -6 -7
-8 -8 -9 -9 -9 -9 -8 -8 -9 -9 -7 -7 -7 -7 -7 -7 -6 -7 -7 -7 -7 -7 -8 -7 -7 -8 -7 -7 -7 -6 -6 -7
-8 -8 -9 -9 -9 -9 -8 -8 -8 -7 -6 -7 -7 -7 -7 -7 -7 -7 -7 -7 -7 -7 -8 -7 -8 -8 -8 -7 -7 -7 -6 -7
-8 -8 -9 -9 -9 -9 -9 -8 -8 -8 -7 -8 -8 -7 -7 -7 -7 -7 -6 -7 -7 -7 -7 -8 -8 -9 -8 -7 -7 -7 -7 -7
-9 -9 -8 -9 -9 -9 -9 -9 -9 -9 -8 -8 -8 -7 -7 -8 -7 -7 -7 -8 -8 -6 -7 -8 -8 -8 -8 -8 -7 -7 -7 -7
-10 -10 -10 -9 -8 -8 -9 -9 -9 -9 -9 -9 -8 -8 -8 -8 -8 -8 -8 -8 -7 -8 -8 -8 -8 -8 -7 -8 -8 -8 -7 -7
-10 -10 -10 -9 -9 -10 -10 -9 -9 -9 -9 -9 -9 -8 -8 -8 -8 -8 -8 -8 -7 -8 -8 -9 -8 -9 -8 -8 -8 -8 -8 -8
-10 -10 -9 -9 -10 -10 -11 -10 -9 -9 -9 -9 -9 -9 -8 -8 -8 -8 -8 -8 -7 -7 -7 -7 -8 -8 -8 -9 -8 -8 -8 -8
-10 -9 -9 -9 -10 -11 -10 -10 -10 -10 -10 -9 -9 -9 -9 -9 -9 -9 -9 -9 -7 -7 -7 -7 -8 -8 -7 -8 -8 -7 -8 -8
-10 -10 -9 -9 -10 -11 -11 -9 -10 -10 -10 -9 -9 -9 -9 -9 -9 -9 -9 -8 -8 -8 -8 -8 -7 -8 -7 -7 -8 -8 -7 -7
-10 -10 -10 -10 -11 -10 -10 -10 -10 -9 -9 -9 -9 -9 -9 -9 -9 -9 -9 -8 -8 -8 -8 -7 -9 -8 -7 -8 -8 -7 -7 -7
-11 -11 -10 -11 -11 -11 -11 -10 -10 -9 -9 -9 -9 -9 -9 -9 -9 -9 -9 -9 -8 -8 -8 -8 -8 -8 -7 -9 -8 -8 -7 -7
-11 -11 -11 -11 -11 -11 -10 -10 -11 -10 -10 -9 -9 -9 -9 -9 -9 -9 -9 -9 -9 -9 -8 -8 -7 -7 -7 -7 -7 -8 -8 -8
-11 -11 -11 -11 -11 -11 -11 -10 -10 -9 -8 -8 -8 -8 -8 -9 -9 -9 -9 -9 -8 -8 -9 -8 -8 -8 -8 -8 -7 -7 -8 -7
-11 -11 -11 -11 -11 -11 -10 -9 -10 -10 -8 -8 -9 -9 -9 -9 -9 -9 -9 -9 -8 -9 -9 -10 -9 -9 -9 -9 -9 -8 -8 -7
-11 -11 -11 -11 -11 -12 -11 -11 -10 -9 -9 -10 -10 -10 -10 -9 -9 -9 -9 -9 -9 -9 -9 -10 -10 -10 -10 -9 -9 -8 -8 -8
-11 -11 -11 -11 -11 -11 -11 -10 -9 -9 -9 -10 -9 -10 -9 -10 -9 -9 -9 -9 -8 -9 -10 -10 -10 -10 -9 -9 -9 -9 -8 -8
Height
5869 5871 5873 5875 5877 5879 5876 5877 5880 5882 5885 5889 5891 5890 5890 5891 5892 5893 5896 5895 5895 5896 5897 5896 5895 5895 5895 5895 5894 5892 5889 5889
5865 5865 5867 5870 5873 5874 5873 5872 5873 5877 5879 5882 5886 5887 5888 5887 5889 5889 5894 5892 5894 5894 5894 5895 5895 5894 5895 5895 5893 5890 5888 5887
5859 5861 5865 5866 5866 5868 5868 5868 5868 5870 5874 5879 5882 5883 5885 5885 5888 5890 5891 5895 5892 5894 5895 5893 5894 5895 5896 5895 5892 5890 5888 5886
5855 5857 5859 5860 5862 5861 5861 5864 5863 5863 5868 5873 5876 5878 5880 5881 5882 5887 5890 5891 5891 5891 5892 5892 5891 5894 5895 5894 5892 5891 5888 5887
5850 5851 5851 5853 5854 5856 5857 5857 5858 5857 5861 5865 5869 5872 5875 5875 5877 5881 5882 5886 5889 5889 5888 5889 5888 5892 5894 5893 5891 5890 5890 5887
5842 5844 5846 5849 5850 5851 5852 5853 5852 5853 5855 5859 5858 5863 5868 5871 5873 5875 5878 5878 5883 5884 5883 5884 5885 5889 5890 5889 5889 5887 5888 5886
5833 5836 5840 5841 5841 5842 5844 5845 5846 5848 5848 5852 5853 5856 5858 5863 5868 5868 5869 5874 5871 5880 5880 5880 5881 5886 5885 5885 5886 5885 5884 5884
5826 5827 5829 5832 5839 5838 5836 5835 5838 5840 5843 5845 5849 5850 5853 5855 5859 5862 5865 5869 5870 5874 5875 5875 5877 5881 5883 5882 5882 5882 5881 5881
5817 5819 5820 5823 5824 5826 5822 5826 5829 5832 5835 5840 5842 5844 5846 5849 5852 5855 5859 5861 5862 5860 5868 5869 5871 5875 5879 5879 5878 5878 5877 5878
5806 5809 5809 5812 5811 5812 5813 5814 5816 5821 5826 5830 5835 5840 5841 5842 5845 5847 5850 5854 5857 5860 5863 5863 5864 5870 5872 5874 5875 5873 5873 5874
5794 5796 5797 5800 5799 5801 5801 5804 5805 5810 5816 5820 5824 5830 5835 5832 5834 5838 5842 5847 5850 5855 5860 5860 5860 5863 5865 5867 5868 5869 5869 5869
5785 5785 5787 5791 5791 5792 5791 5791 5797 5798 5801 5806 5811 5817 5826 5825 5826 5828 5834 5838 5845 5850 5852 5853 5855 5858 5858 5859 5861 5862 5863 5864
5777 5777 5779 5782 5781 5781 5780 5785 5786 5787 5789 5793 5797 5803 5814 5818 5820 5824 5825 5830 5836 5840 5841 5846 5847 5851 5852 5853 5854 5855 5857 5858
5769 5768 5770 5772 5771 5771 5771 5772 5772 5775 5778 5780 5784 5790 5800 5807 5812 5816 5821 5824 5830 5835 5836 5839 5841 5844 5846 5846 5847 5849 5849 5851
5762 5763 5763 5762 5761 5758 5758 5761 5760 5762 5761 5761 5771 5779 5787 5794 5801 5806 5810 5814 5815 5822 5827 5831 5834 5836 5838 5840 5841 5843 5843 5844
5754 5757 5755 5754 5750 5749 5749 5750 5749 5748 5750 5755 5763 5769 5775 5782 5785 5792 5797 5803 5809 5810 5817 5822 5825 5828 5831 5833 5833 5834 5835 5835
5747 5748 5747 5746 5744 5741 5737 5736 5736 5735 5737 5744 5752 5758 5764 5767 5771 5778 5783 5789 5798 5798 5797 5810 5816 5819 5822 5825 5826 5826 5827 5827
5740 5740 5740 5739 5735 5732 5729 5727 5725 5725 5727 5731 5735 5741 5748 5752 5755 5763 5771 5780 5787 5786 5787 5786 5806 5812 5815 5817 5819 5820 5820 5820
5731 5732 5733 5732 5728 5726 5723 5720 5719 5719 5718 5719 5723 5726 5732 5742 5743 5746 5757 5765 5771 5770 5780 5781 5792 5805 5807 5809 5810 5809 5810 5811
Wind_Speed
23 23 24 25 22 16 22 19 21 19 26 15 9 4 6 14 18 8 9 11 6 5 9 1 2 3 3 4 5 8 10 7
22 25 26 26 26 24 20 18 20 23 24 24 19 13 5 9 14 14 10 12 8 2 7 10 4 5 4 7 8 10 12 11
26 27 24 26 29 27 27 21 19 22 25 23 24 15 13 14 5 6 10 6 11 7 1 6 3 5 5 7 8 11 12 7
30 30 29 25 21 26 28 23 18 20 20 22 25 22 20 20 16 8 9 17 7 5 5 2 6 8 9 6 7 9 10 8
32 33 35 33 30 28 31 30 29 29 22 18 23 22 19 17 16 11 12 16 20 13 7 2 8 12 16 11 7 7 8 7
31 34 34 35 34 32 32 34 33 30 27 13 20 25 25 23 16 14 13 11 22 16 6 4 11 17 22 17 10 7 8 6
34 32 32 41 40 39 37 33 35 33 31 25 19 29 27 29 28 27 15 19 27 21 16 11 10 19 16 15 13 9 9 9
43 41 41 34 33 47 46 43 41 39 34 36 28 27 29 29 24 21 20 27 20 31 22 16 10 16 15 14 14 14 12 11
49 47 46 37 35 34 43 49 50 46 43 36 33 25 34 33 25 22 26 26 26 33 19 19 12 16 22 19 19 18 17 15
49 47 43 39 40 37 39 39 48 48 48 45 38 31 27 34 33 26 17 22 25 25 18 22 11 21 25 26 25 24 23 22
42 41 42 39 42 39 36 39 41 47 45 47 45 31 30 31 28 22 19 21 24 16 27 23 24 28 22 22 24 24 26 27
36 37 37 36 40 40 42 42 37 47 47 49 49 44 31 30 31 29 27 18 18 16 21 22 23 27 24 22 26 26 26 28
32 34 34 28 28 31 37 40 43 45 47 48 55 53 41 35 27 26 27 22 16 18 16 20 28 33 30 23 28 27 27 28
27 30 29 27 31 32 33 31 37 46 50 52 52 55 52 45 39 34 31 25 23 24 22 26 32 35 25 28 27 29 30 31
27 24 24 24 27 30 33 29 31 35 40 46 54 54 56 54 51 44 36 37 28 29 31 33 31 27 23 24 28 29 31 33
28 18 22 23 31 29 27 26 34 37 31 37 43 47 47 60 55 54 50 42 36 38 33 33 32 28 28 29 30 31 32 33
24 21 21 23 23 27 29 27 28 35 46 43 50 48 47 52 59 56 50 50 45 42 37 27 26 29 31 33 33 33 31 31
22 23 20 18 19 18 22 24 30 28 35 41 53 52 54 49 55 65 55 50 53 56 39 33 28 30 30 31 33 36 36 34
25 22 20 23 23 20 22 17 26 34 36 41 44 48 53 54 52 64 65 65 62 58 46 39 34 34 34 37 37 36 37 37
Wind_Direction
238 241 231 229 235 232 251 247 229 229 229 222 239 132 354 336 337 201 200 185 166 226 249 338 14 33 30 10 346 350 338 323
233 236 232 221 222 226 245 262 256 230 227 226 227 225 257 308 318 186 222 167 177 273 255 257 360 4 353 344 354 357 340 322
225 228 223 220 227 237 243 247 275 251 239 224 231 253 247 255 238 209 332 273 150 158 240 201 98 13 311 329 3 359 353 342
223 217 218 214 236 236 237 239 256 271 248 225 234 236 239 246 259 269 291 294 241 205 218 141 67 4 315 310 353 6 8 3
216 224 224 221 232 237 236 244 254 257 257 238 230 226 228 244 243 263 278 262 228 209 197 292 358 336 321 298 324 2 13 19
245 225 222 230 233 239 243 248 253 256 263 259 236 222 233 239 222 245 243 323 218 207 173 294 328 311 305 292 298 329 336 8
258 259 248 227 229 236 238 244 253 258 261 254 244 223 226 248 243 250 246 274 223 225 215 217 266 293 281 278 285 296 312 322
255 259 269 269 248 242 240 240 244 249 254 265 252 227 235 235 241 237 236 256 256 225 215 228 245 291 263 265 275 280 286 299
258 263 270 269 264 258 251 242 241 241 247 251 257 233 230 233 226 243 256 268 276 223 219 226 244 264 278 277 269 271 274 280
258 259 258 256 261 260 250 254 244 241 242 245 250 243 233 236 238 235 253 273 276 285 243 232 235 252 260 274 276 267 272 276
253 253 252 251 259 265 263 255 246 241 242 241 242 237 239 246 235 218 226 266 260 284 228 225 228 243 246 266 265 260 267 272
261 261 263 262 264 266 266 256 251 239 237 237 238 233 223 235 242 234 230 230 246 229 255 272 237 248 257 257 262 258 261 267
267 267 265 267 270 265 257 259 250 245 240 236 234 236 226 234 234 240 237 224 212 244 239 246 241 249 256 253 258 261 266 270
267 268 269 266 267 267 264 263 249 248 248 243 236 232 230 228 234 235 242 221 204 219 225 226 229 242 250 245 254 260 265 272
263 269 272 271 281 282 272 247 252 245 254 243 233 232 227 232 232 234 234 231 212 226 224 226 228 236 245 256 260 260 263 268
257 266 271 272 285 289 293 261 258 255 246 233 225 228 231 230 238 233 234 241 231 209 217 227 234 242 249 252 258 265 271 274
263 263 270 281 295 292 289 266 258 249 242 233 229 235 239 235 231 232 229 236 229 212 206 221 242 245 248 256 262 266 269 273
259 260 260 270 291 315 280 274 260 253 251 236 235 233 234 237 235 230 231 229 226 232 211 199 233 244 253 257 263 270 270 273
254 253 254 257 277 288 300 304 267 261 260 254 251 245 242 239 237 234 233 236 239 231 208 200 215 245 258 266 270 274 276 277